IR1ZYZ-3 Weather Reports


Display with metric or nautical units.
time (UTC)temp
F
wind
direction
speed
MPH
gust
MPH
rain 1hr
in
rain 24hr
in
rain mn
in
humidity
%
barometer
mb
20260506224226 55 0.0 0.0 0.00 0.00 0.00 10 1012.2
20260506223219 55 0.0 0.0 0.00 0.00 0.00 10 1012.2
20260506222214 54 0.0 0.0 0.00 0.00 0.00 10 1012.3
20260506221208 55 0.0 0.0 0.00 0.00 0.00 10 1012.2
20260506220202 55 0.0 0.0 0.00 0.00 0.00 10 1012.2
20260506215156 55 0.0 0.0 0.00 0.00 0.00 10 1012.1
20260506214151 55 0.0 0.0 0.00 0.00 0.00 10 1012.1
20260506213145 55 0.0 0.0 0.00 0.00 0.00 10 1012.1
20260506212140 55 0.0 0.0 0.00 0.00 0.00 10 1012.1
20260506211134 55 0.0 0.0 0.00 0.00 0.00 10 1012.2
20260506210129 55 0.0 0.0 0.00 0.00 0.00 10 1012.2
20260506205124 55 0.0 0.0 0.00 0.00 0.00 10 1012.1
20260506204119 55 0.0 0.0 0.00 0.00 0.00 10 1012.0
20260506203113 56 0.0 0.0 0.00 0.00 0.00 10 1011.9
20260506202109 57 0.0 0.0 0.00 0.00 0.00 10 1011.8
20260506201104 57 0.0 0.0 0.00 0.00 0.00 10 1011.6
20260506200058 57 0.0 0.0 0.00 0.00 0.00 10 1011.4
20260506195053 57 0.0 0.0 0.00 0.00 0.00 10 1011.4
20260506194049 57 0.0 0.0 0.00 0.00 0.00 10 1011.2
20260506193044 57 0.0 0.0 0.00 0.00 0.00 10 1011.1
20260506192039 57 0.0 0.0 0.00 0.00 0.00 10 1010.9
20260506191033 57 0.0 0.0 0.00 0.00 0.00 10 1010.7
20260506190028 57 0.0 0.0 0.00 0.00 0.00 10 1010.4
20260506185023 58 0.0 0.0 0.00 0.00 0.00 10 1010.2
20260506184018 58 0.0 0.0 0.00 0.00 0.00 10 1010.0
20260506183012 58 0.0 0.0 0.00 0.00 0.00 10 1010.0
20260506182008 58 0.0 0.0 0.00 0.00 0.00 10 1010.0
20260506181003 58 0.0 0.0 0.00 0.00 0.00 10 1009.9
20260506175957 59 0.0 0.0 0.00 0.00 0.00 10 1009.8
20260506174952 59 0.0 0.0 0.00 0.00 0.00 10 1009.6
20260506173948 60 0.0 0.0 0.00 0.00 0.00 10 1009.6
20260506172943 60 0.0 0.0 0.00 0.00 0.00 10 1009.5
20260506171937 60 0.0 0.0 0.00 0.00 0.00 10 1009.5
20260506170932 61 0.0 0.0 0.00 0.00 0.00 10 1009.5
20260506165928 61 0.0 0.0 0.00 0.00 0.00 10 1009.4
20260506164923 63 0.0 0.0 0.00 0.00 0.00 89 1009.3
20260506163917 66 0.0 0.0 0.00 0.00 0.00 80 1009.1
20260506162912 66 0.0 0.0 0.00 0.00 0.00 76 1009.2
20260506161907 67 0.0 0.0 0.00 0.00 0.00 76 1009.0
20260506160902 68 0.0 0.0 0.00 0.00 0.00 69 1009.1
20260506160038 69 0.0 0.0 0.00 0.00 0.00 65 1009.0
20260506155857 69 0.0 0.0 0.00 0.00 0.00 65 1009.0
20260506154852 70 0.0 0.0 0.00 0.00 0.00 65 1008.9
20260506153846 70 0.0 0.0 0.00 0.00 0.00 63 1008.8
20260506151835 70 0.0 0.0 0.00 0.00 0.00 67 1008.8
20260506150830 69 0.0 0.0 0.00 0.00 0.00 73 1009.0
20260506145825 70 0.0 0.0 0.00 0.00 0.00 72 1008.9
20260506144821 69 0.0 0.0 0.00 0.00 0.00 70 1008.9
20260506143815 69 0.0 0.0 0.00 0.00 0.00 72 1008.8
20260506142810 70 0.0 0.0 0.00 0.00 0.00 74 1009.1
20260506141805 70 0.0 0.0 0.00 0.00 0.00 71 1009.0
20260506140800 70 0.0 0.0 0.00 0.00 0.00 72 1009.0
20260506135756 70 0.0 0.0 0.00 0.00 0.00 71 1009.1
20260506134750 70 0.0 0.0 0.00 0.00 0.00 68 1009.1
20260506133745 71 0.0 0.0 0.00 0.00 0.00 68 1009.3
20260506132740 72 0.0 0.0 0.00 0.00 0.00 70 1009.3
20260506131734 71 0.0 0.0 0.00 0.00 0.00 69 1009.3
20260506130729 71 0.0 0.0 0.00 0.00 0.00 71 1009.6
20260506125723 71 0.0 0.0 0.00 0.00 0.00 72 1009.5
20260506124718 70 0.0 0.0 0.00 0.00 0.00 76 1009.6
20260506123713 67 0.0 0.0 0.00 0.00 0.00 84 1009.8
20260506122708 71 0.0 0.0 0.00 0.00 0.00 83 1009.8
20260506121703 65 0.0 0.0 0.00 0.00 0.00 10 1010.0
20260506120658 67 0.0 0.0 0.00 0.00 0.00 88 1009.9
20260506115652 68 0.0 0.0 0.00 0.00 0.00 90 1009.8
20260506114648 66 0.0 0.0 0.00 0.00 0.00 95 1009.9
20260506113643 68 0.0 0.0 0.00 0.00 0.00 84 1009.9
20260506112637 67 0.0 0.0 0.00 0.00 0.00 85 1009.8
20260506111632 65 0.0 0.0 0.00 0.00 0.00 98 1009.9
20260506110628 65 0.0 0.0 0.00 0.00 0.00 97 1009.9
20260506105622 67 0.0 0.0 0.00 0.00 0.00 90 1009.8
20260506104617 65 0.0 0.0 0.00 0.00 0.00 94 1009.9
20260506103612 65 0.0 0.0 0.00 0.00 0.00 88 1010.1
20260506102606 65 0.0 0.0 0.00 0.00 0.00 96 1009.8
20260506101600 66 0.0 0.0 0.00 0.00 0.00 98 1009.7
20260506100555 66 0.0 0.0 0.00 0.00 0.00 10 1009.8
20260506095550 64 0.0 0.0 0.00 0.00 0.00 10 1009.9
20260506094545 64 0.0 0.0 0.00 0.00 0.00 10 1010.0
20260506093539 63 0.0 0.0 0.00 0.00 0.00 10 1010.1
20260506092534 63 0.0 0.0 0.00 0.00 0.00 10 1010.2
20260506091530 63 0.0 0.0 0.00 0.00 0.00 10 1010.0
20260506090525 62 0.0 0.0 0.00 0.00 0.00 10 1010.1
20260506085520 62 0.0 0.0 0.00 0.00 0.00 10 1010.0
20260506084515 61 0.0 0.0 0.00 0.00 0.00 10 1010.0
20260506083510 61 0.0 0.0 0.00 0.00 0.00 10 1010.0
20260506082505 60 0.0 0.0 0.00 0.00 0.00 10 1010.1
20260506081501 59 0.0 0.0 0.00 0.00 0.00 10 1010.1
20260506080546 60 0.0 0.0 0.00 0.00 0.00 10 1009.9
20260506080456 60 0.0 0.0 0.00 0.00 0.00 10 1009.9
20260506073442 58 0.0 0.0 0.00 0.00 0.00 10 1010.1
20260506072437 57 0.0 0.0 0.00 0.00 0.00 10 1010.2
20260506071432 56 0.0 0.0 0.00 0.00 0.00 10 1010.0
20260506070428 57 0.0 0.0 0.00 0.00 0.00 10 1010.0
20260506061932 54 0.0 0.0 0.00 0.00 0.00 10 1010.0
20260506060926 54 0.0 0.0 0.00 0.00 0.00 10 1009.9
20260506050854 52 0.0 0.0 0.00 0.00 0.00 10 1009.7
20260506044843 52 0.0 0.0 0.00 0.00 0.00 10 1009.8
20260506043837 52 0.0 0.0 0.00 0.00 0.00 10 1009.5
20260506042831 52 0.0 0.0 0.00 0.00 0.00 10 1009.6
20260506041825 52 0.0 0.0 0.00 0.00 0.00 10 1010.1
20260506040819 52 0.0 0.0 0.00 0.00 0.00 10 1010.3
20260506035814 52 0.0 0.0 0.00 0.00 0.00 10 1010.4
20260506034808 52 0.0 0.0 0.00 0.00 0.00 10 1010.3
20260506033802 52 0.0 0.0 0.00 0.00 0.00 10 1009.8
20260506032756 52 0.0 0.0 0.00 0.00 0.00 10 1009.9
20260506031751 52 0.0 0.0 0.00 0.00 0.00 10 1010.0
20260506030745 52 0.0 0.0 0.00 0.00 0.00 10 1010.1
20260506025740 52 0.0 0.0 0.00 0.00 0.00 10 1009.8
20260506024734 52 0.0 0.0 0.00 0.00 0.00 10 1010.4
20260506023729 52 0.0 0.0 0.00 0.00 0.00 10 1010.5
20260506022723 52 0.0 0.0 0.00 0.00 0.00 10 1010.6
20260506021717 52 0.0 0.0 0.00 0.00 0.00 10 1010.7
20260506020712 52 0.0 0.0 0.00 0.00 0.00 10 1010.7
20260506015706 52 0.0 0.0 0.00 0.00 0.00 10 1010.6
20260506014700 52 0.0 0.0 0.00 0.00 0.00 10 1010.8
20260506013655 52 0.0 0.0 0.00 0.00 0.00 10 1010.8
20260506012650 52 0.0 0.0 0.00 0.00 0.00 10 1010.9
20260506011644 52 0.0 0.0 0.00 0.00 0.00 10 1011.0
20260506010638 52 0.0 0.0 0.00 0.00 0.00 10 1011.0
20260506005633 53 0.0 0.0 0.00 0.00 0.00 10 1010.8
20260506004627 54 0.0 0.0 0.00 0.00 0.00 10 1011.1
20260506003621 53 0.0 0.0 0.00 0.00 0.00 10 1011.4
20260506002616 53 0.0 0.0 0.00 0.00 0.00 10 1011.3
20260506001610 53 0.0 0.0 0.00 0.00 0.00 10 1011.3
20260506000605 53 0.0 0.0 0.00 0.00 0.00 10 1011.3
20260505235600 54 0.0 0.0 0.00 0.00 0.00 10 1012.0
20260505234555 54 0.0 0.0 0.00 0.00 0.00 10 1012.4
20260505233549 54 0.0 0.0 0.00 0.00 0.00 10 1013.1
20260505232544 54 0.0 0.0 0.00 0.00 0.00 10 1013.1
20260505231539 54 0.0 0.0 0.00 0.00 0.00 10 1013.2
20260505230534 54 0.0 0.0 0.00 0.00 0.00 10 1012.6
20260505225529 54 0.0 0.0 0.00 0.00 0.00 10 1012.6
20260505224524 54 0.0 0.0 0.00 0.00 0.00 10 1012.2